Sterling, IL

8:38 PM CST on November 15, 2019 (GMT -0600)
Whiteside County-Bittorf

Weather History for KSQI - September, 2019

Change the Weather History Date:

Saturday, September 14, 2019

  Actual Average Record
Temperature  
Mean Temperature 68 °F -  
Max Temperature 82 °F 74 °F 89 °F (2018)
Min Temperature 54 °F 50 °F 37 °F (2013)
Cooling Degree Days 3    
Growing Degree Days 18 (Base 50)    
Moisture  
Dew Point 60 °F    
Average Humidity 78    
Maximum Humidity 100    
Minimum Humidity 49    
Precipitation  
Precipitation 0.01 in - - ()
Sea Level Pressure  
Sea Level Pressure 29.76 in    
Wind  
Wind Speed 3 mph ()    
Max Wind Speed 14 mph    
Max Gust Speed 20 mph    
Visibility 9.7 miles    
Events Rain    
Averages and records for this station are not official NWS values.
T = Trace of Precipitation, MM = Missing Value Source: Averaged Metar Reports

Daily Weather History Graph

Daily Weather History Graph

Search for Another Location

Airport or City:

Astronomy

Sep. 14, 2019 Rise Set
Actual Time 6:37 AM CDT 7:10 PM CDT
Civil Twilight 6:09 AM CDT 7:38 PM CDT
Nautical Twilight 5:36 AM CDT 8:11 PM CDT
Astronomical Twilight 5:02 AM CDT 8:44 PM CDT
Moon 7:51 PM CDT (9/14) 6:50 AM CDT (9/14)
Length of Visible Light 13h 28m
Length of Day
12h 32m
Full, 100% of the Moon is Illuminated
Sep 14
Full
Sep 21
Last Quarter
Sep 28
New
Oct 5
First Quarter
Oct 13
Full

Hourly Weather History & Observations

Time (CDT) Temp. Heat Index Dew Point Humidity Pressure Visibility Wind Dir Wind Speed Gust Speed Precip Events Conditions
12:56 AM 55.9 °F - 55.0 °F 97% 29.77 in 10.0 mi Calm Calm - N/A   Clear
1:56 AM 57.0 °F - 55.0 °F 93% 29.77 in 10.0 mi SW 4.6 mph - N/A   Clear
2:56 AM 55.9 °F - 55.9 °F 100% 29.77 in 10.0 mi SSW 3.5 mph - N/A   Clear
3:56 AM 55.0 °F - 54.0 °F 96% 29.78 in 10.0 mi Calm Calm - N/A   Clear
4:56 AM 54.0 °F - 54.0 °F 100% 29.79 in 4.0 mi Calm Calm - N/A   Clear
5:56 AM 54.0 °F - 54.0 °F 100% 29.80 in 10.0 mi Calm Calm - N/A   Clear
6:56 AM 54.0 °F - 54.0 °F 100% 29.82 in 10.0 mi South 3.5 mph - N/A   Clear
7:56 AM 57.9 °F - 57.0 °F 97% 29.82 in 10.0 mi Calm Calm - N/A   Clear
9:56 AM 66.9 °F - 60.1 °F 79% 29.83 in 10.0 mi SSW 4.6 mph - N/A   Clear
10:56 AM 71.1 °F - 62.1 °F 73% 29.82 in 10.0 mi Variable 5.8 mph - N/A   Clear
11:56 AM 75.9 °F - 62.1 °F 62% 29.80 in 10.0 mi WSW 13.8 mph - N/A   Clear
12:56 PM 78.1 °F - 63.0 °F 60% 29.80 in 10.0 mi WSW 10.4 mph - N/A   Clear
1:56 PM 80.1 °F 81.2 °F 62.1 °F 54% 29.78 in 10.0 mi WSW 11.5 mph - N/A   Clear
2:56 PM 81.0 °F 81.6 °F 60.1 °F 49% 29.75 in 10.0 mi WSW 9.2 mph 18.4 mph N/A   Clear
3:56 PM 82.0 °F 82.7 °F 61.0 °F 49% 29.72 in 10.0 mi Variable 3.5 mph 19.6 mph N/A   Clear
4:56 PM 79.0 °F - 63.0 °F 58% 29.70 in 10.0 mi South 4.6 mph - N/A   Clear
5:56 PM 77.0 °F - 64.9 °F 66% 29.69 in 10.0 mi Variable 3.5 mph - N/A   Clear
6:56 PM 73.0 °F - 64.0 °F 73% 29.68 in 10.0 mi SSE 3.5 mph - N/A   Clear
7:56 PM 72.0 °F - 63.0 °F 73% 29.69 in 10.0 mi SSE 3.5 mph - N/A   Clear
8:56 PM 68.0 °F - 63.0 °F 84% 29.70 in 10.0 mi Calm Calm - N/A   Clear
9:56 PM 71.1 °F - 62.1 °F 73% 29.71 in 10.0 mi Variable 5.8 mph - N/A   Mostly Cloudy
10:56 PM 70.0 °F - 63.0 °F 78% 29.71 in 10.0 mi Variable 3.5 mph - 0.00 in Rain Light Rain
11:56 PM 68.0 °F - 64.0 °F 87% 29.69 in 10.0 mi Variable 4.6 mph - 0.01 in   Partly Cloudy